STARLINK-36504, 67462

Orbit data source: Space-Track

STARLINK-36504, 67462 is a payload satellite owned by SpaceX/Seattle (US) in LEO that was launched on Wed, 14 Jan 2026 UTC via an FALCON 9 launch vehicle from the Air Force Eastern Test Range (AFETR). Payload-class satellites include a variety of spacecraft equipped with specific instruments for various scientific and technological missions. These include communications satellites like Starlink; space stations such as the ISS; scientific satellites like the Hubble; Earth observation satellites from companies like Planet Labs, Umbra, and HawkEye 360; GPS; miniature CubeSats for education and research; and military/defense satellites.

Loading next visibility...
Identifier
67462, 2026-008T
Orbit
LEO
Country
Flag of USUS
Related business
Manufacturer
SpaceX/Seattle
Mission
Operational Commercial Communications
Bus & Motor
STARLINK V2MO, Unknown motor
Mass
575 kg wet, ~530 kg dry
Launch date (UTC)
2026-01-14 (5 months ago)
Launch vehicle
FALCON 9
Launch site
Air Force Eastern Test Range (AFETR)
Object type
Payload
Rocket body
Debris
Shape & HBR
Box + 2 Pan, 17.7 m
Radar Cross Section
36.964 m², Large (>1 m²)

Expand to show TLE details & history
Last TLE update: 1 day ago

TLE from 1 day ago
0 STARLINK-36504
1 67462U 26008T   26170.56760957  .00020702  00000-0  75949-3 0  9990
2 67462  43.0002 349.8192 0001455 259.6342 100.4346 15.27588751 25158
Epoch: 2026-06-19T13:37Z
TLE epoch observation values (Epoch: 2026-06-19T13:37:21.466Z)
Latitude
-0.00001°
Longitude
-122.31498°
Altitude
482.979 km
Speed
7.626 km/s
True Right ascension
23h 19m 16s
True Declination
0° 00' 00"
Sunlit
Object was in daylight at epoch
Visualization orbit readout
Latitude
Unknown
Longitude
Unknown
Altitude
Unknown
Speed
Unknown
Apparent Right ascension
Unknown
Apparent Declination
Unknown
Sunlit
N/A
Visualization observer readout
Local Sidereal Time
10:19:40
Azimuth
Unknown
Elevation
Unknown
Doppler factor
Unknown
Orbital elements
Apogee altitude
485.967 km
Perigee altitude
483.969 km
Semi-major axis
6,863.105 km
Eccentricity
0.00015
Inclination
43.0002°
RAAN
349.8192°
Arg. of periapsis
259.6342°
True anomaly
100.451°
Mean anomaly
100.4346°
Eccentric anomaly
100.4428°
Mean motion
3.81735 °/min
Orbital period
94.31 mins
BSTAR
0.00075949
Loading maneuver chart data...
Computing Atmospheric mass density...
Loading historical data...
Loading historical data...
Loading historical data...
Loading historical data...
Loading historical data...
Loading historical data...
Loading historical data...

Documentation

Showing up to 5 results
|